| time (UTC) | temp F | wind direction | speed MPH | gust MPH | rain 1hr in | rain 24hr in | rain mn in | humidity % | barometer mb |
| 20260510120104 | 59 | 58 | 3.0 | 10.0 | 0.93 | 1.16 | 1.01 | 93 | 1015.5 |
| 20260510115604 | 59 | 23 | 4.0 | 12.0 | 0.95 | 1.16 | 1.01 | 93 | 1015.3 |
| 20260510114604 | 59 | 22 | 6.0 | 13.0 | 0.99 | 1.15 | 1.00 | 93 | 1015.1 |
| 20260510114103 | 59 | 355 | 7.0 | 15.0 | 0.97 | 1.12 | 0.97 | 93 | 1014.9 |
| 20260510113603 | 59 | 3 | 8.0 | 20.0 | 0.97 | 1.12 | 0.97 | 93 | 1014.8 |
| 20260510113103 | 59 | 10 | 6.0 | 20.0 | 0.96 | 1.11 | 0.96 | 94 | 1014.2 |
| 20260510112604 | 59 | 32 | 10.0 | 20.0 | 0.95 | 1.10 | 0.95 | 94 | 1013.7 |
| 20260510111604 | 59 | 23 | 7.0 | 16.0 | 0.59 | 0.74 | 0.59 | 94 | 1013.7 |
| 20260510111103 | 60 | 29 | 9.0 | 16.0 | 0.44 | 0.59 | 0.44 | 92 | 1012.9 |
| 20260510110603 | 61 | 23 | 5.0 | 12.0 | 0.15 | 0.30 | 0.15 | 93 | 1012.9 |
| 20260510105604 | 62 | 355 | 2.0 | 9.0 | 0.06 | 0.21 | 0.06 | 92 | 1012.2 |
| 20260510104603 | 62 | 0 | 3.0 | 9.0 | 0.01 | 0.16 | 0.01 | 91 | 1011.1 |
| 20260510104104 | 62 | 324 | 1.0 | 6.0 | 0.00 | 0.15 | 0.00 | 90 | 1011.2 |
| 20260510103604 | 62 | 62 | 2.0 | 7.0 | 0.00 | 0.15 | 0.00 | 89 | 1010.9 |
| 20260510103104 | 63 | 3 | 2.0 | 7.0 | 0.00 | 0.15 | 0.00 | 89 | 1011.3 |
| 20260510102604 | 63 | 25 | 1.0 | 7.0 | 0.00 | 0.15 | 0.00 | 88 | 1010.8 |
| 20260510101604 | 63 | 31 | 3.0 | 5.0 | 0.00 | 0.15 | 0.00 | 87 | 1010.7 |
| 20260510101103 | 63 | 25 | 2.0 | 3.0 | 0.00 | 0.15 | 0.00 | 88 | 1010.9 |
| 20260510100603 | 63 | 59 | 0.0 | 7.0 | 0.00 | 0.15 | 0.00 | 87 | 1010.7 |
| 20260510095104 | 63 | 350 | 1.0 | 3.0 | 0.00 | 0.16 | 0.00 | 87 | 1010.7 |
| 20260510094604 | 63 | 251 | 2.0 | 3.0 | 0.00 | 0.16 | 0.00 | 87 | 1010.4 |
| 20260510094103 | 63 | 175 | 0.0 | 2.0 | 0.00 | 0.16 | 0.00 | 87 | 1010.2 |
| 20260510093603 | 63 | 141 | 0.0 | 2.0 | 0.00 | 0.16 | 0.00 | 86 | 1010.3 |
| 20260510093104 | 63 | 141 | 1.0 | 2.0 | 0.00 | 0.16 | 0.00 | 86 | 1010.2 |
| 20260510092604 | 63 | 141 | 0.0 | 3.0 | 0.00 | 0.16 | 0.00 | 86 | 1010.5 |
| 20260510092103 | 63 | 141 | 1.0 | 3.0 | 0.00 | 0.16 | 0.00 | 86 | 1010.5 |
| 20260510090604 | 64 | 188 | 7.0 | 12.0 | 0.00 | 0.16 | 0.00 | 85 | 1010.5 |
| 20260510090103 | 64 | 162 | 5.0 | 9.0 | 0.00 | 0.16 | 0.00 | 85 | 1010.4 |
| 20260510085603 | 64 | 165 | 5.0 | 9.0 | 0.00 | 0.16 | 0.00 | 84 | 1010.5 |
| 20260510084604 | 64 | 119 | 5.0 | 7.0 | 0.00 | 0.16 | 0.00 | 83 | 1010.2 |
| 20260510084104 | 64 | 98 | 4.0 | 12.0 | 0.00 | 0.16 | 0.00 | 84 | 1010.3 |
| 20260510083604 | 64 | 152 | 5.0 | 12.0 | 0.00 | 0.16 | 0.00 | 84 | 1010.6 |
| 20260510082603 | 64 | 137 | 6.0 | 10.0 | 0.00 | 0.16 | 0.00 | 84 | 1011.0 |
| 20260510082103 | 64 | 158 | 7.0 | 12.0 | 0.00 | 0.16 | 0.00 | 84 | 1011.1 |
| 20260510081104 | 63 | 111 | 7.0 | 12.0 | 0.00 | 0.16 | 0.00 | 84 | 1010.3 |
| 20260510075604 | 63 | 144 | 7.0 | 13.0 | 0.00 | 0.16 | 0.00 | 84 | 1010.8 |
| 20260510075103 | 63 | 133 | 8.0 | 13.0 | 0.00 | 0.16 | 0.00 | 84 | 1010.9 |
| 20260510074104 | 63 | 126 | 7.0 | 15.0 | 0.00 | 0.16 | 0.00 | 84 | 1010.7 |
| 20260510073104 | 63 | 123 | 9.0 | 16.0 | 0.00 | 0.16 | 0.00 | 84 | 1011.1 |
| 20260510072603 | 63 | 110 | 10.0 | 16.0 | 0.00 | 0.16 | 0.00 | 84 | 1011.0 |
| 20260510072103 | 63 | 123 | 9.0 | 18.0 | 0.00 | 0.16 | 0.00 | 84 | 1011.0 |
| 20260510071604 | 63 | 116 | 11.0 | 18.0 | 0.00 | 0.16 | 0.00 | 84 | 1011.0 |
| 20260510071104 | 63 | 107 | 10.0 | 20.0 | 0.00 | 0.16 | 0.00 | 84 | 1010.6 |
| 20260510070103 | 62 | 116 | 9.0 | 16.0 | 0.00 | 0.16 | 0.00 | 85 | 1011.0 |
| 20260510065603 | 62 | 124 | 9.0 | 16.0 | 0.00 | 0.16 | 0.00 | 85 | 1010.9 |
| 20260510065103 | 62 | 110 | 9.0 | 15.0 | 0.00 | 0.16 | 0.00 | 86 | 1010.9 |
| 20260510064603 | 62 | 102 | 7.0 | 15.0 | 0.00 | 0.16 | 0.00 | 87 | 1011.2 |
| 20260510063604 | 62 | 100 | 9.0 | 13.0 | 0.00 | 0.16 | 0.00 | 87 | 1011.6 |
| 20260510063104 | 62 | 92 | 7.0 | 14.0 | 0.00 | 0.16 | 0.00 | 87 | 1011.9 |
| 20260510062603 | 62 | 104 | 7.0 | 14.0 | 0.00 | 0.16 | 0.00 | 86 | 1012.5 |
| 20260510062103 | 62 | 100 | 8.0 | 14.0 | 0.00 | 0.16 | 0.00 | 86 | 1012.8 |
| 20260510055604 | 61 | 87 | 5.0 | 13.0 | 0.00 | 0.16 | 0.00 | 88 | 1013.4 |
| 20260510055103 | 61 | 74 | 6.0 | 17.0 | 0.00 | 0.16 | 0.00 | 88 | 1013.0 |
| 20260510054603 | 61 | 63 | 8.0 | 17.0 | 0.00 | 0.16 | 0.00 | 89 | 1013.0 |
| 20260510053605 | 61 | 61 | 8.0 | 20.0 | 0.01 | 0.16 | 0.00 | 89 | 1013.0 |
| 20260510051103 | 63 | 33 | 3.0 | 10.0 | 0.04 | 0.16 | 0.00 | 90 | 1012.3 |
| 20260510050604 | 63 | 354 | 4.0 | 13.0 | 0.06 | 0.16 | 0.00 | 90 | 1012.3 |
| 20260510045604 | 64 | 10 | 5.0 | 18.0 | 0.10 | 0.16 | 0.16 | 89 | 1011.5 |
| 20260510045104 | 64 | 51 | 8.0 | 18.0 | 0.10 | 0.16 | 0.16 | 89 | 1010.0 |
| 20260510044603 | 64 | 12 | 8.0 | 16.0 | 0.11 | 0.16 | 0.16 | 89 | 1011.7 |
| 20260510044103 | 64 | 123 | 10.0 | 14.0 | 0.12 | 0.15 | 0.15 | 89 | 1009.5 |
| 20260510043603 | 65 | 95 | 5.0 | 12.0 | 0.14 | 0.15 | 0.15 | 87 | 1010.9 |
| 20260510043104 | 65 | 58 | 6.0 | 12.0 | 0.14 | 0.15 | 0.15 | 86 | 1011.4 |
| 20260510042604 | 65 | 60 | 3.0 | 12.0 | 0.13 | 0.14 | 0.14 | 86 | 1012.0 |
| 20260510042103 | 66 | 2 | 6.0 | 13.0 | 0.13 | 0.14 | 0.14 | 85 | 1012.2 |
| 20260510041603 | 66 | 13 | 6.0 | 13.0 | 0.12 | 0.13 | 0.13 | 84 | 1012.0 |
| 20260510041103 | 66 | 6 | 5.0 | 16.0 | 0.11 | 0.12 | 0.12 | 82 | 1012.2 |
| 20260510040603 | 67 | 22 | 6.0 | 17.0 | 0.10 | 0.11 | 0.11 | 80 | 1012.5 |
| 20260510040104 | 68 | 322 | 9.0 | 18.0 | 0.07 | 0.08 | 0.08 | 77 | 1013.4 |
| 20260510035604 | 69 | 327 | 6.0 | 18.0 | 0.05 | 0.06 | 0.06 | 74 | 1012.9 |
| 20260510035103 | 70 | 309 | 8.0 | 18.0 | 0.05 | 0.06 | 0.06 | 73 | 1012.5 |
| 20260510034604 | 72 | 303 | 9.0 | 17.0 | 0.04 | 0.05 | 0.05 | 71 | 1012.5 |
| 20260510033605 | 76 | 334 | 3.0 | 12.0 | 0.00 | 0.01 | 0.01 | 61 | 1010.4 |
| 20260510033105 | 77 | 48 | 3.0 | 13.0 | 0.00 | 0.01 | 0.01 | 60 | 1008.8 |
| 20260510032105 | 78 | 84 | 6.0 | 17.0 | 0.00 | 0.01 | 0.01 | 56 | 1007.3 |
| 20260510031605 | 78 | 119 | 6.0 | 17.0 | 0.00 | 0.01 | 0.01 | 55 | 1007.1 |
| 20260510031105 | 78 | 103 | 12.0 | 17.0 | 0.00 | 0.01 | 0.01 | 54 | 1006.9 |
| 20260510030606 | 78 | 109 | 10.0 | 20.0 | 0.00 | 0.01 | 0.01 | 54 | 1006.9 |
| 20260510030105 | 78 | 143 | 10.0 | 20.0 | 0.00 | 0.01 | 0.01 | 55 | 1007.2 |
| 20260510025105 | 78 | 115 | 10.0 | 15.0 | 0.00 | 0.01 | 0.01 | 54 | 1007.0 |
| 20260510024605 | 78 | 119 | 10.0 | 15.0 | 0.00 | 0.01 | 0.01 | 54 | 1007.1 |
| 20260510024106 | 78 | 120 | 10.0 | 13.0 | 0.00 | 0.01 | 0.01 | 54 | 1007.2 |
| 20260510023606 | 78 | 153 | 5.0 | 12.0 | 0.00 | 0.01 | 0.01 | 53 | 1007.4 |
| 20260510023106 | 79 | 141 | 5.0 | 15.0 | 0.00 | 0.01 | 0.01 | 53 | 1007.4 |
| 20260510021605 | 79 | 128 | 7.0 | 13.0 | 0.00 | 0.01 | 0.01 | 51 | 1007.3 |
| 20260510021105 | 79 | 133 | 8.0 | 15.0 | 0.00 | 0.01 | 0.01 | 51 | 1007.3 |
| 20260510020605 | 79 | 143 | 10.0 | 15.0 | 0.00 | 0.01 | 0.01 | 50 | 1007.0 |
| 20260510020105 | 79 | 128 | 9.0 | 15.0 | 0.00 | 0.01 | 0.01 | 51 | 1006.6 |
| 20260510015605 | 79 | 142 | 9.0 | 15.0 | 0.00 | 0.01 | 0.01 | 51 | 1006.5 |
| 20260510015105 | 79 | 151 | 9.0 | 16.0 | 0.00 | 0.01 | 0.01 | 50 | 1006.1 |
| 20260510013605 | 79 | 146 | 9.0 | 14.0 | 0.00 | 0.01 | 0.01 | 49 | 1006.0 |
| 20260510013105 | 79 | 146 | 8.0 | 12.0 | 0.00 | 0.01 | 0.01 | 48 | 1006.1 |
| 20260510012605 | 79 | 133 | 7.0 | 13.0 | 0.00 | 0.01 | 0.01 | 48 | 1006.0 |
| 20260510012105 | 79 | 153 | 7.0 | 13.0 | 0.00 | 0.01 | 0.01 | 47 | 1006.2 |
| 20260510011605 | 80 | 143 | 7.0 | 13.0 | 0.00 | 0.01 | 0.01 | 47 | 1006.1 |
| 20260510011105 | 80 | 150 | 7.0 | 13.0 | 0.00 | 0.01 | 0.01 | 46 | 1006.2 |
| 20260510010105 | 80 | 140 | 7.0 | 13.0 | 0.00 | 0.01 | 0.01 | 45 | 1006.4 |
| 20260510005606 | 80 | 125 | 9.0 | 13.0 | 0.00 | 0.01 | 0.01 | 44 | 1006.3 |
| 20260510005105 | 81 | 136 | 9.0 | 13.0 | 0.00 | 0.01 | 0.01 | 45 | 1006.3 |
| 20260510004605 | 81 | 121 | 6.0 | 12.0 | 0.00 | 0.01 | 0.01 | 46 | 1006.4 |
| 20260510004105 | 81 | 152 | 9.0 | 13.0 | 0.00 | 0.01 | 0.01 | 45 | 1006.3 |
| 20260510003606 | 81 | 140 | 7.0 | 13.0 | 0.00 | 0.01 | 0.01 | 45 | 1006.6 |
| 20260510003106 | 81 | 151 | 7.0 | 13.0 | 0.00 | 0.01 | 0.01 | 45 | 1006.5 |
| 20260510002105 | 82 | 121 | 8.0 | 12.0 | 0.00 | 0.01 | 0.01 | 45 | 1006.3 |
| 20260510001605 | 82 | 138 | 9.0 | 13.0 | 0.00 | 0.01 | 0.01 | 44 | 1006.2 |
| 20260510000605 | 82 | 137 | 7.0 | 13.0 | 0.00 | 0.01 | 0.01 | 45 | 1006.4 |
| 20260510000105 | 82 | 138 | 7.0 | 14.0 | 0.00 | 0.01 | 0.01 | 44 | 1006.5 |
| 20260509235605 | 82 | 155 | 6.0 | 15.0 | 0.00 | 0.01 | 0.01 | 43 | 1006.5 |
| 20260509235105 | 82 | 120 | 9.0 | 15.0 | 0.00 | 0.01 | 0.01 | 43 | 1006.4 |
| 20260509234105 | 83 | 141 | 10.0 | 15.0 | 0.00 | 0.01 | 0.01 | 43 | 1006.5 |
| 20260509233605 | 84 | 135 | 8.0 | 15.0 | 0.00 | 0.01 | 0.01 | 42 | 1006.4 |
| 20260509232605 | 84 | 132 | 10.0 | 15.0 | 0.00 | 0.01 | 0.01 | 41 | 1006.5 |
| 20260509231605 | 84 | 117 | 7.0 | 15.0 | 0.00 | 0.01 | 0.01 | 40 | 1006.6 |
| 20260509231105 | 84 | 111 | 9.0 | 15.0 | 0.00 | 0.01 | 0.01 | 40 | 1006.6 |
| 20260509230605 | 85 | 122 | 8.0 | 14.0 | 0.00 | 0.01 | 0.01 | 40 | 1006.7 |
| 20260509230105 | 85 | 135 | 9.0 | 14.0 | 0.00 | 0.01 | 0.01 | 39 | 1006.8 |
| 20260509225605 | 85 | 128 | 6.0 | 13.0 | 0.00 | 0.01 | 0.01 | 41 | 1006.7 |
| 20260509225105 | 85 | 120 | 8.0 | 20.0 | 0.00 | 0.01 | 0.01 | 40 | 1006.7 |
| 20260509224105 | 85 | 145 | 6.0 | 14.0 | 0.00 | 0.12 | 0.01 | 40 | 1006.9 |
| 20260509223605 | 85 | 130 | 9.0 | 14.0 | 0.00 | 0.25 | 0.01 | 41 | 1007.0 |
| 20260509222605 | 86 | 172 | 7.0 | 14.0 | 0.00 | 0.25 | 0.01 | 40 | 1007.2 |
| 20260509221605 | 86 | 140 | 7.0 | 14.0 | 0.00 | 0.25 | 0.01 | 39 | 1007.3 |
| 20260509221105 | 86 | 146 | 10.0 | 14.0 | 0.00 | 0.25 | 0.01 | 40 | 1007.4 |
| 20260509220605 | 86 | 153 | 8.0 | 14.0 | 0.00 | 0.25 | 0.01 | 40 | 1007.4 |
| 20260509215605 | 86 | 181 | 7.0 | 13.0 | 0.00 | 0.25 | 0.01 | 41 | 1007.4 |
| 20260509214605 | 86 | 96 | 6.0 | 12.0 | 0.00 | 0.25 | 0.01 | 38 | 1007.3 |
| 20260509213605 | 86 | 95 | 6.0 | 14.0 | 0.00 | 0.25 | 0.01 | 37 | 1007.4 |
| 20260509213105 | 86 | 77 | 6.0 | 14.0 | 0.00 | 0.25 | 0.01 | 38 | 1007.4 |
| 20260509211605 | 86 | 81 | 5.0 | 13.0 | 0.00 | 0.25 | 0.01 | 40 | 1007.5 |
| 20260509211106 | 86 | 111 | 9.0 | 13.0 | 0.00 | 0.25 | 0.01 | 40 | 1007.7 |
| 20260509210105 | 86 | 103 | 4.0 | 12.0 | 0.00 | 0.25 | 0.01 | 41 | 1007.8 |
| 20260509205605 | 86 | 82 | 7.0 | 12.0 | 0.00 | 0.25 | 0.01 | 39 | 1007.9 |
| 20260509204605 | 86 | 102 | 2.0 | 13.0 | 0.00 | 0.25 | 0.01 | 40 | 1007.9 |
| 20260509204105 | 86 | 103 | 5.0 | 13.0 | 0.00 | 0.25 | 0.01 | 41 | 1008.0 |
| 20260509203605 | 86 | 109 | 7.0 | 13.0 | 0.00 | 0.25 | 0.01 | 40 | 1008.1 |
| 20260509202605 | 86 | 92 | 5.0 | 12.0 | 0.00 | 0.25 | 0.01 | 40 | 1008.2 |
| 20260509202105 | 86 | 101 | 2.0 | 12.0 | 0.00 | 0.25 | 0.01 | 40 | 1008.2 |
| 20260509201105 | 85 | 88 | 7.0 | 12.0 | 0.00 | 0.25 | 0.01 | 41 | 1008.3 |
| 20260509200605 | 85 | 136 | 6.0 | 12.0 | 0.00 | 0.25 | 0.01 | 40 | 1008.4 |
| 20260509200105 | 85 | 40 | 3.0 | 8.0 | 0.00 | 0.25 | 0.01 | 43 | 1008.5 |
| 20260509195605 | 84 | 214 | 5.0 | 10.0 | 0.00 | 0.25 | 0.01 | 41 | 1008.7 |
| 20260509194605 | 84 | 171 | 4.0 | 10.0 | 0.00 | 0.25 | 0.01 | 39 | 1008.8 |
| 20260509194105 | 84 | 200 | 4.0 | 15.0 | 0.00 | 0.25 | 0.01 | 39 | 1008.8 |
| 20260509193605 | 85 | 148 | 7.0 | 15.0 | 0.00 | 0.25 | 0.01 | 40 | 1008.9 |
| 20260509193105 | 84 | 206 | 5.0 | 12.0 | 0.00 | 0.25 | 0.01 | 39 | 1008.9 |
| 20260509192605 | 84 | 174 | 4.0 | 12.0 | 0.00 | 0.25 | 0.01 | 39 | 1008.9 |
| 20260509192105 | 84 | 136 | 7.0 | 13.0 | 0.00 | 0.25 | 0.01 | 43 | 1009.0 |
| 20260509191105 | 84 | 162 | 8.0 | 13.0 | 0.00 | 0.25 | 0.01 | 42 | 1009.1 |
| 20260509190605 | 83 | 3 | 2.0 | 13.0 | 0.00 | 0.25 | 0.01 | 45 | 1009.2 |
| 20260509190105 | 83 | 140 | 7.0 | 13.0 | 0.00 | 0.25 | 0.01 | 44 | 1009.2 |
| 20260509185605 | 83 | 142 | 7.0 | 12.0 | 0.00 | 0.25 | 0.01 | 44 | 1009.3 |
| 20260509185105 | 83 | 182 | 5.0 | 12.0 | 0.00 | 0.25 | 0.01 | 44 | 1009.4 |
| 20260509182606 | 83 | 145 | 2.0 | 10.0 | 0.00 | 0.25 | 0.01 | 48 | 1009.6 |
| 20260509182105 | 83 | 231 | 2.0 | 7.0 | 0.00 | 0.25 | 0.01 | 45 | 1009.6 |
| 20260509181105 | 82 | 254 | 1.0 | 7.0 | 0.00 | 0.25 | 0.01 | 43 | 1009.8 |
| 20260509180604 | 82 | 181 | 2.0 | 9.0 | 0.00 | 0.25 | 0.01 | 44 | 1009.9 |
| 20260509180105 | 81 | 87 | 5.0 | 12.0 | 0.00 | 0.25 | 0.01 | 48 | 1009.9 |
| 20260509175604 | 81 | 113 | 3.0 | 12.0 | 0.00 | 0.25 | 0.01 | 50 | 1010.1 |
| 20260509175105 | 81 | 157 | 4.0 | 9.0 | 0.00 | 0.25 | 0.01 | 55 | 1010.1 |
| 20260509174605 | 80 | 205 | 3.0 | 12.0 | 0.00 | 0.25 | 0.01 | 54 | 1010.2 |
| 20260509174105 | 80 | 149 | 7.0 | 12.0 | 0.00 | 0.25 | 0.01 | 55 | 1010.3 |
| 20260509173605 | 79 | 154 | 6.0 | 12.0 | 0.00 | 0.25 | 0.01 | 57 | 1010.4 |
| 20260509173105 | 79 | 205 | 5.0 | 12.0 | 0.00 | 0.25 | 0.01 | 59 | 1010.5 |
| 20260509171605 | 78 | 209 | 7.0 | 12.0 | 0.00 | 0.25 | 0.01 | 62 | 1010.6 |
| 20260509171105 | 78 | 214 | 5.0 | 12.0 | 0.00 | 0.25 | 0.01 | 62 | 1010.7 |
| 20260509170605 | 78 | 190 | 6.0 | 12.0 | 0.00 | 0.25 | 0.01 | 63 | 1010.8 |
| 20260509170105 | 78 | 235 | 4.0 | 12.0 | 0.00 | 0.25 | 0.01 | 61 | 1010.8 |
| 20260509165605 | 79 | 183 | 7.0 | 12.0 | 0.00 | 0.25 | 0.01 | 66 | 1010.8 |
| 20260509165105 | 79 | 163 | 4.0 | 12.0 | 0.00 | 0.25 | 0.01 | 55 | 1010.8 |
| 20260509164605 | 80 | 189 | 4.0 | 9.0 | 0.00 | 0.25 | 0.01 | 55 | 1010.9 |
| 20260509164105 | 80 | 108 | 5.0 | 9.0 | 0.00 | 0.25 | 0.01 | 51 | 1010.9 |
| 20260509163605 | 80 | 121 | 3.0 | 8.0 | 0.00 | 0.25 | 0.01 | 51 | 1010.9 |
| 20260509163105 | 79 | 101 | 3.0 | 8.0 | 0.00 | 0.25 | 0.01 | 56 | 1010.8 |
| 20260509162105 | 77 | 136 | 3.0 | 10.0 | 0.00 | 0.25 | 0.01 | 58 | 1010.9 |
| 20260509161605 | 78 | 198 | 5.0 | 10.0 | 0.00 | 0.25 | 0.01 | 60 | 1011.0 |
| 20260509161106 | 78 | 108 | 4.0 | 9.0 | 0.00 | 0.25 | 0.01 | 57 | 1011.0 |
| 20260509160105 | 77 | 116 | 5.0 | 10.0 | 0.00 | 0.25 | 0.01 | 58 | 1011.0 |
| 20260509155605 | 76 | 144 | 5.0 | 10.0 | 0.00 | 0.25 | 0.01 | 60 | 1011.0 |
| 20260509155105 | 76 | 133 | 6.0 | 10.0 | 0.00 | 0.25 | 0.01 | 63 | 1010.9 |
| 20260509154605 | 75 | 116 | 6.0 | 9.0 | 0.00 | 0.25 | 0.01 | 66 | 1010.7 |
| 20260509154105 | 75 | 125 | 7.0 | 9.0 | 0.00 | 0.25 | 0.01 | 67 | 1010.8 |
| 20260509153605 | 74 | 97 | 5.0 | 9.0 | 0.00 | 0.25 | 0.01 | 69 | 1010.7 |
| 20260509153105 | 74 | 121 | 6.0 | 10.0 | 0.00 | 0.25 | 0.01 | 69 | 1010.7 |
| 20260509152104 | 73 | 141 | 3.0 | 9.0 | 0.00 | 0.25 | 0.01 | 74 | 1010.9 |
| 20260509151105 | 72 | 142 | 5.0 | 8.0 | 0.00 | 0.25 | 0.01 | 74 | 1010.8 |
| 20260509150605 | 72 | 119 | 3.0 | 7.0 | 0.00 | 0.25 | 0.01 | 76 | 1010.8 |
| 20260509150105 | 72 | 152 | 3.0 | 6.0 | 0.00 | 0.25 | 0.01 | 78 | 1010.8 |
| 20260509145605 | 71 | 96 | 3.0 | 7.0 | 0.00 | 0.25 | 0.01 | 80 | 1010.8 |
| 20260509145104 | 71 | 82 | 3.0 | 7.0 | 0.00 | 0.25 | 0.01 | 80 | 1010.7 |
| 20260509144604 | 70 | 115 | 4.0 | 8.0 | 0.00 | 0.25 | 0.01 | 80 | 1010.6 |
| 20260509144105 | 70 | 103 | 4.0 | 8.0 | 0.00 | 0.25 | 0.01 | 83 | 1010.5 |
| 20260509143605 | 70 | 116 | 6.0 | 8.0 | 0.00 | 0.25 | 0.01 | 83 | 1010.6 |
| 20260509143104 | 70 | 98 | 3.0 | 6.0 | 0.00 | 0.25 | 0.01 | 86 | 1010.6 |
| 20260509142605 | 69 | 86 | 1.0 | 3.0 | 0.00 | 0.25 | 0.01 | 90 | 1010.7 |
| 20260509142105 | 68 | 47 | 0.0 | 0.0 | 0.00 | 0.25 | 0.01 | 91 | 1010.8 |
| 20260509141605 | 67 | 110 | 0.0 | 0.0 | 0.00 | 0.25 | 0.01 | 94 | 1010.7 |
| 20260509141105 | 66 | 153 | 0.0 | 2.0 | 0.00 | 0.25 | 0.01 | 95 | 1010.7 |
| 20260509140106 | 64 | 188 | 1.0 | 2.0 | 0.00 | 0.25 | 0.01 | 96 | 1010.8 |
| 20260509135605 | 64 | 188 | 1.0 | 2.0 | 0.00 | 0.25 | 0.01 | 97 | 1010.8 |
| 20260509134605 | 63 | 321 | 0.0 | 0.0 | 0.00 | 0.25 | 0.01 | 97 | 1010.8 |
| 20260509134105 | 63 | 321 | 0.0 | 0.0 | 0.00 | 0.25 | 0.01 | 98 | 1010.8 |
| 20260509133105 | 62 | 321 | 0.0 | 0.0 | 0.00 | 0.25 | 0.01 | 98 | 1010.6 |
| 20260509132605 | 62 | 321 | 0.0 | 0.0 | 0.00 | 0.25 | 0.01 | 98 | 1010.5 |
| 20260509132105 | 61 | 321 | 0.0 | 0.0 | 0.00 | 0.25 | 0.01 | 98 | 1010.5 |
| 20260509131604 | 61 | 321 | 0.0 | 1.0 | 0.00 | 0.25 | 0.01 | 98 | 1010.4 |
| 20260509131105 | 60 | 321 | 0.0 | 1.0 | 0.00 | 0.25 | 0.01 | 98 | 1010.3 |
| 20260509130605 | 60 | 321 | 0.0 | 1.0 | 0.00 | 0.25 | 0.01 | 98 | 1010.2 |
| 20260509130104 | 59 | 320 | 0.0 | 0.0 | 0.00 | 0.25 | 0.01 | 98 | 1010.2 |
| 20260509125104 | 58 | 320 | 0.0 | 1.0 | 0.00 | 0.25 | 0.01 | 98 | 1010.2 |
| 20260509124604 | 58 | 319 | 0.0 | 1.0 | 0.00 | 0.25 | 0.01 | 98 | 1010.2 |
| 20260509123605 | 56 | 319 | 0.0 | 0.0 | 0.00 | 0.25 | 0.01 | 98 | 1010.0 |
| 20260509123104 | 55 | 319 | 0.0 | 0.0 | 0.00 | 0.25 | 0.01 | 98 | 1010.0 |
| 20260509122605 | 54 | 319 | 0.0 | 0.0 | 0.00 | 0.25 | 0.01 | 98 | 1010.0 |
| 20260509122105 | 54 | 319 | 0.0 | 0.0 | 0.00 | 0.25 | 0.01 | 97 | 1009.9 |
| 20260509121604 | 54 | 319 | 0.0 | 0.0 | 0.00 | 0.25 | 0.01 | 97 | 1010.0 |
| 20260509121105 | 54 | 319 | 0.0 | 0.0 | 0.00 | 0.25 | 0.01 | 97 | 1010.0 |